TimeCDT,TemperatureF,Dew PointF,Humidity,Sea Level PressureIn,VisibilityMPH,Wind Direction,Wind SpeedMPH,Gust SpeedMPH,PrecipitationIn,Events,Conditions,WindDirDegrees,DateUTC
12:15 AM,60.8,46.4,59,29.76,10.0,SW,8.1,-,N/A,,Mostly Cloudy,220,2011-10-26 05:15:00
12:35 AM,62.6,46.4,55,29.76,10.0,SW,9.2,-,N/A,,Mostly Cloudy,230,2011-10-26 05:35:00
12:55 AM,62.6,48.2,59,29.76,10.0,SW,10.4,-,N/A,,Mostly Cloudy,230,2011-10-26 05:55:00
1:15 AM,62.6,48.2,59,29.76,10.0,SW,9.2,-,N/A,,Scattered Clouds,230,2011-10-26 06:15:00
1:35 AM,62.6,50.0,63,29.75,10.0,SW,10.4,-,N/A,,Clear,230,2011-10-26 06:35:00
1:55 AM,62.6,51.8,68,29.75,10.0,SW,12.7,-,N/A,,Scattered Clouds,230,2011-10-26 06:55:00
2:15 AM,62.6,51.8,68,29.75,10.0,SW,11.5,-,N/A,,Scattered Clouds,230,2011-10-26 07:15:00
2:35 AM,62.6,51.8,68,29.74,10.0,SW,12.7,-,N/A,,Mostly Cloudy,230,2011-10-26 07:35:00
2:55 AM,60.8,51.8,72,29.75,10.0,WSW,8.1,-,N/A,,Mostly Cloudy,240,2011-10-26 07:55:00
3:15 AM,59.0,51.8,77,29.76,10.0,WNW,3.5,-,N/A,,Scattered Clouds,300,2011-10-26 08:15:00
3:35 AM,59.0,51.8,77,29.76,10.0,West,3.5,-,N/A,,Clear,280,2011-10-26 08:35:00
3:55 AM,57.2,51.8,82,29.77,10.0,Calm,Calm,-,N/A,,Scattered Clouds,0,2011-10-26 08:55:00
4:15 AM,55.4,50.0,82,29.78,10.0,NNE,11.5,-,N/A,,Overcast,20,2011-10-26 09:15:00
4:35 AM,51.8,50.0,94,29.79,2.5,NNE,10.4,16.1,N/A,,Overcast,20,2011-10-26 09:35:00
4:55 AM,51.8,50.0,94,29.80,4.0,NNE,10.4,-,N/A,,Overcast,30,2011-10-26 09:55:00
5:15 AM,51.8,48.2,88,29.81,5.0,NNE,10.4,-,N/A,,Overcast,20,2011-10-26 10:15:00
5:35 AM,51.8,48.2,88,29.82,5.0,NNE,9.2,-,N/A,,Overcast,30,2011-10-26 10:35:00
5:55 AM,51.8,48.2,88,29.82,5.0,NNE,11.5,-,N/A,,Overcast,30,2011-10-26 10:55:00
6:15 AM,50.0,46.4,87,29.83,7.0,NNE,11.5,17.3,N/A,,Overcast,30,2011-10-26 11:15:00
6:35 AM,50.0,46.4,87,29.83,7.0,NNE,11.5,-,N/A,,Overcast,20,2011-10-26 11:35:00
6:55 AM,50.0,46.4,87,29.84,7.0,North,10.4,-,N/A,,Overcast,10,2011-10-26 11:55:00
7:15 AM,50.0,46.4,87,29.85,7.0,North,9.2,-,N/A,,Overcast,10,2011-10-26 12:15:00
7:35 AM,50.0,46.4,87,29.86,7.0,North,13.8,19.6,N/A,,Overcast,10,2011-10-26 12:35:00
7:55 AM,50.0,46.4,87,29.86,7.0,NNE,9.2,17.3,N/A,,Overcast,30,2011-10-26 12:55:00
8:15 AM,50.0,46.4,87,29.86,7.0,NNE,10.4,-,N/A,,Overcast,20,2011-10-26 13:15:00
8:35 AM,50.0,46.4,87,29.87,7.0,North,9.2,-,N/A,,Overcast,360,2011-10-26 13:35:00
8:55 AM,50.0,46.4,87,29.88,7.0,NNE,9.2,-,N/A,,Overcast,20,2011-10-26 13:55:00
9:15 AM,50.0,46.4,87,29.88,10.0,North,9.2,-,N/A,,Overcast,360,2011-10-26 14:15:00
9:35 AM,50.0,46.4,87,29.88,10.0,NNE,9.2,-,N/A,,Overcast,20,2011-10-26 14:35:00
9:55 AM,50.0,46.4,87,29.89,10.0,NNE,6.9,-,N/A,,Overcast,20,2011-10-26 14:55:00
10:15 AM,51.8,46.4,82,29.90,7.0,North,6.9,-,N/A,,Overcast,350,2011-10-26 15:15:00
10:35 AM,50.0,46.4,87,29.90,7.0,North,9.2,-,N/A,,Overcast,360,2011-10-26 15:35:00
10:55 AM,50.0,46.4,87,29.89,10.0,North,6.9,-,N/A,,Overcast,360,2011-10-26 15:55:00
11:15 AM,51.8,44.6,76,29.90,10.0,North,6.9,-,N/A,,Overcast,350,2011-10-26 16:15:00
11:35 AM,51.8,44.6,76,29.91,10.0,North,6.9,-,N/A,,Overcast,360,2011-10-26 16:35:00
11:55 AM,51.8,44.6,76,29.91,10.0,NNW,8.1,-,N/A,,Overcast,340,2011-10-26 16:55:00
12:15 PM,50.0,44.6,82,29.91,10.0,NNW,13.8,-,N/A,,Overcast,340,2011-10-26 17:15:00
12:35 PM,50.0,44.6,82,29.90,10.0,North,10.4,-,N/A,,Overcast,360,2011-10-26 17:35:00
12:55 PM,50.0,44.6,82,29.91,10.0,North,9.2,-,N/A,,Overcast,360,2011-10-26 17:55:00
1:15 PM,50.0,44.6,82,29.90,10.0,NNW,8.1,-,N/A,,Overcast,340,2011-10-26 18:15:00
1:35 PM,50.0,44.6,82,29.90,10.0,North,10.4,-,N/A,,Overcast,360,2011-10-26 18:35:00
1:55 PM,50.0,44.6,82,29.89,10.0,North,10.4,16.1,N/A,,Overcast,350,2011-10-26 18:55:00
2:15 PM,50.0,42.8,76,29.87,10.0,North,10.4,16.1,N/A,,Overcast,350,2011-10-26 19:15:00
2:35 PM,50.0,42.8,76,29.88,10.0,NNW,11.5,17.3,N/A,,Overcast,340,2011-10-26 19:35:00
2:55 PM,50.0,42.8,76,29.90,10.0,NW,8.1,-,N/A,,Overcast,320,2011-10-26 19:55:00
3:15 PM,50.0,42.8,76,29.90,10.0,NNW,9.2,-,N/A,,Overcast,340,2011-10-26 20:15:00
3:35 PM,50.0,42.8,76,29.89,10.0,North,8.1,-,N/A,,Overcast,350,2011-10-26 20:35:00
3:55 PM,50.0,42.8,76,29.90,10.0,North,6.9,16.1,N/A,,Overcast,350,2011-10-26 20:55:00
4:15 PM,48.2,42.8,82,29.91,10.0,NNW,9.2,17.3,N/A,,Drizzle,340,2011-10-26 21:15:00
4:35 PM,48.2,42.8,82,29.90,10.0,NNW,6.9,-,N/A,Rain,Light Rain,340,2011-10-26 21:35:00
4:55 PM,48.2,42.8,82,29.92,10.0,NNW,8.1,-,N/A,,Drizzle,330,2011-10-26 21:55:00
5:15 PM,46.4,42.8,87,29.92,10.0,NW,9.2,-,N/A,,Light Drizzle,320,2011-10-26 22:15:00
5:35 PM,46.4,42.8,87,29.93,10.0,NNW,8.1,-,N/A,Rain,Light Rain,340,2011-10-26 22:35:00
5:55 PM,46.4,42.8,87,29.92,10.0,NNW,8.1,-,N/A,,Overcast,340,2011-10-26 22:55:00
6:15 PM,46.4,42.8,87,29.94,10.0,NNW,9.2,-,N/A,,Overcast,330,2011-10-26 23:15:00
6:35 PM,46.4,42.8,87,29.94,10.0,NNW,8.1,-,N/A,,Overcast,340,2011-10-26 23:35:00
6:55 PM,46.4,42.8,87,29.94,10.0,NNW,6.9,-,N/A,,Overcast,340,2011-10-26 23:55:00
7:15 PM,46.4,42.8,87,29.94,10.0,NNW,6.9,-,N/A,,Overcast,330,2011-10-27 00:15:00
7:35 PM,46.4,42.8,87,29.93,10.0,NNW,5.8,-,N/A,,Overcast,330,2011-10-27 00:35:00
7:55 PM,46.4,42.8,87,29.94,10.0,NNW,5.8,-,N/A,,Overcast,330,2011-10-27 00:55:00
8:15 PM,46.4,41.0,81,29.94,10.0,NNW,5.8,-,N/A,,Overcast,330,2011-10-27 01:15:00
8:35 PM,46.4,41.0,81,29.94,10.0,NNW,6.9,-,N/A,,Overcast,330,2011-10-27 01:35:00
8:55 PM,46.4,41.0,81,29.94,10.0,NW,8.1,-,N/A,,Overcast,320,2011-10-27 01:55:00
9:15 PM,46.4,41.0,81,29.94,10.0,NW,8.1,-,N/A,,Overcast,320,2011-10-27 02:15:00
9:35 PM,46.4,41.0,81,29.95,10.0,NW,5.8,-,N/A,,Overcast,320,2011-10-27 02:35:00
9:55 PM,46.4,41.0,81,29.95,10.0,NW,5.8,-,N/A,,Overcast,320,2011-10-27 02:55:00
10:15 PM,46.4,41.0,81,29.94,10.0,NNW,8.1,-,N/A,,Overcast,330,2011-10-27 03:15:00
10:35 PM,46.4,41.0,81,29.94,10.0,NNW,5.8,-,N/A,,Overcast,340,2011-10-27 03:35:00
10:55 PM,46.4,41.0,81,29.94,10.0,NW,4.6,-,N/A,,Overcast,320,2011-10-27 03:55:00
11:15 PM,46.4,41.0,81,29.94,10.0,NW,4.6,-,N/A,,Overcast,320,2011-10-27 04:15:00
11:35 PM,46.4,39.2,76,29.94,10.0,NNW,6.9,-,N/A,,Overcast,330,2011-10-27 04:35:00
11:55 PM,46.4,39.2,76,29.94,10.0,NNW,6.9,-,N/A,,Overcast,330,2011-10-27 04:55:00